Starlink 33634

operational
NORAD ID: 63377 Int'l Des: 2025-063 Owner: SPXS Country: US Constellation: starlink
LEOCIRCULAR

About Starlink 33634

Description loading...

Live Position

Loading 3D Globe...

Upcoming Passes

Altitude History

Altitude vs Time

uPlot chart will show altitude changes over time

Two-Line Element Set

1 63377U 25063Q 25350.94686690 .00019213 00000-0 65898-3 0 9990
2 63377 53.1591 76.6182 0001467 86.6835 273.4334 15.30207045 42094
Epoch: Dec 16, 2025 • Age: 12 hours

Current Status

Altitude 492.8 km
Velocity 7.62 km/s
Sub-Earth Point -48.62°S, 125.73°E
Launch Date Mar 26, 2025
Age 0.7 years
Type internet

Technical Details

Classification Payload
Mass 575.00 kg
Dry Mass 530.00 kg
Total Mass 575.00 kg
Length 0.30 m
Diameter 4.10 m
Span 29.00 m
Shape Box + pan
Manufacturer SPXS
Bus Type Starlink V2MO
Phase Status In Orbit
Owner/State SPXS/US

Large Constellations

Loading constellations...